Location: Lhota
(50.0887°N, 14.0116°E)
Time: 05:38:53
(UTC+00:00)

COSMOS 2428 - Pass Details

Date: 19 May 2025
Orbit: 845 x 853 km, 70.9° (Epoch: 22 June)

Event Time Altitude Azimuth Distance (km) Brightness Sun altitude
Rises 22:55:34 0° 333° (NNW) 3,433 7.0 -19.9°
Reaches altitude 10° 22:58:17 10° 342° (NNW) 2,495 6.2 -19.9°
Maximum altitude 23:03:28 34° 47° (NE) 1,380 4.2 -19.9°
Drops below altitude 10° 23:08:37 10° 112° (ESE) 2,484 4.9 -19.9°
Enters shadow 23:09:52 - 117° (ESE) 2,905 5.3 -19.9°
